Flag for U.S.A. Weather past 2 weeks in Kansas City, Missouri, U.S.A.

Now
93 °F

Passing clouds.


Feels Like: 102 °F
Forecast: 72 / 92 °F
Wind: 6 mph from North

Location: Kansas City Downtown Airport

Current Time: Aug 1, 2015 at 3:58:32 PM

Latest Report: Aug 1, 2015 at 2:54 PM


Visibility: 10 mi

Pressure: 29.95 "Hg

Humidity: 52%

Dew point: 73 °F

Location of Kansas CityLocation

Historic Weather in Kansas City — Graph

°F

Kansas City temperature yesterday

Maximum temperature yesterday: 91 °F (at 3:54 PM)
Minimum temperature yesterday: 68 °F (at 3:54 AM)
Average temperature yesterday: 80 °F

Past Weeks' High & Low Weather Summary

 TemperatureHumidityPressure
High97 °F (Jul 24, 3:54 PM)97% (Jul 20, 8:01 AM)30.19 "Hg (Jul 20, 8:01 AM)
Low66 °F (Jul 22, 5:54 AM)29% (Jul 30, 3:54 PM)29.75 "Hg (Jul 17, 6:54 PM)
Average82 °F70%29.92 "Hg
* Reported Jul 17 1:54 PM — Aug 1 1:54 PM, Kansas City, Weather by CustomWeather, © 2015

Note: Actual official high and low records may vary slightly from our data, if they occured in-between our weather recording intervals... More about our weather records

Advertising

Kansas City weather history for previous 24 hours

 ConditionsComfort  
Time TempWeatherWind HumidityBarometerVisibility
1:54 PM
Sat, Aug 1
90 °FBroken clouds.7 mph61%29.96 "Hg10 mi
12:54 PM88 °FSunny.5 mph59%29.99 "Hg10 mi
11:54 AM84 °FPartly sunny.7 mph70%30.03 "Hg10 mi
10:54 AM87 °FBroken clouds.9 mph67%30.03 "Hg10 mi
9:54 AM84 °FPartly sunny.7 mph72%30.03 "Hg10 mi
8:54 AM81 °FSunny.3 mph77%30.02 "Hg10 mi
7:54 AM79 °FSunny.3 mph79%30.02 "Hg10 mi
6:54 AM75 °FClear.3 mph85%30.01 "Hg10 mi
5:54 AM75 °FClear.No wind79%30.01 "Hg10 mi
4:54 AM75 °FClear.5 mph76%30.01 "Hg10 mi
3:54 AM77 °FClear.3 mph71%30.01 "Hg10 mi
2:54 AM78 °FClear.No wind74%30.01 "Hg10 mi
1:54 AM77 °FClear.No wind82%30.02 "Hg10 mi
12:54 AM79 °FClear.No wind77%30.03 "Hg10 mi
11:54 PM
Fri, Jul 31
80 °FClear.No wind74%30.04 "Hg10 mi
10:54 PM80 °FClear.No wind69%30.03 "Hg10 mi
9:54 PM82 °FClear.3 mph63%30.02 "Hg10 mi
8:54 PM85 °FSunny.No wind57%30.01 "Hg10 mi
7:54 PM86 °FSunny.3 mph55%30.01 "Hg10 mi
6:54 PM88 °FSunny.6 mph50%30.01 "Hg10 mi
5:54 PM90 °FSunny.6 mph48%30.01 "Hg10 mi
4:54 PM90 °FSunny.6 mph48%30.03 "Hg10 mi
3:54 PM91 °FSunny.6 mph47%30.04 "Hg10 mi
Weather by CustomWeather, © 2015

See weather overviewHow to use our weather pages